New Orleans NAS, LA

3:38 AM CDT on May 27, 2017 (GMT -0500)
New Orleans Naval Air Station

Weather History for KNBG - November, 2013

Change the Weather History Date:

Friday, November 1, 2013

  Actual Average Record
Temperature  
Mean Temperature 66 °F -  
Max Temperature 77 °F 73 °F 84 °F (2004)
Min Temperature 55 °F 55 °F 41 °F (2014)
Cooling Degree Days 1    
Growing Degree Days 16 (Base 50)    
Moisture  
Dew Point 56 °F    
Average Humidity 71    
Maximum Humidity 93    
Minimum Humidity 37    
Precipitation  
Precipitation 0.00 in - - ()
Sea Level Pressure  
Sea Level Pressure 29.89 in    
Wind  
Wind Speed 5 mph (NW)    
Max Wind Speed 9 mph    
Max Gust Speed 17 mph    
Visibility 9 miles    
Events      
Averages and records for this station are not official NWS values.
T = Trace of Precipitation, MM = Missing Value Source: NWS Daily Summary

Daily Weather History Graph

Daily Weather History Graph

Search for Another Location

Airport or City:

Trip Planner

Search our weather history database for the weather conditions in past years. The results will help you decide how hot, cold, wet, or windy it might be!

Date:

Astronomy

Nov. 01, 2013 Rise Set
Actual Time 7:13 AM CDT 6:13 PM CDT
Civil Twilight 6:49 AM CDT 6:37 PM CDT
Nautical Twilight 6:21 AM CDT 7:05 PM CDT
Astronomical Twilight 5:53 AM CDT 7:33 PM CDT
Moon 5:14 AM CDT (11/1) 5:00 PM CDT (11/1)
Length of Visible Light 11h 48m
Length of Day
10h 59m
Waning Crescent, 4% of the Moon is Illuminated
Nov 1
Waning Crescent
Nov 3
New
Nov 9
First Quarter
Nov 17
Full
Nov 25
Last Quarter

Hourly Weather History & Observations

Time (CDT) Temp. Dew Point Humidity Pressure Visibility Wind Dir Wind Speed Gust Speed Precip Events Conditions
6:06 AM 66.2 °F 62.6 °F 88% 29.86 in 7.0 mi NNW 8.1 mph - N/A   Overcast
6:55 AM 66.0 °F 61.0 °F 84% 29.88 in 7.0 mi Variable 5.8 mph - N/A   Overcast
7:55 AM 66.2 °F 60.8 °F 83% 29.89 in 10.0 mi Variable 3.5 mph - N/A   Overcast
8:55 AM 66.2 °F 60.8 °F 83% 29.89 in 10.0 mi Variable 3.5 mph - N/A   Mostly Cloudy
9:55 AM 68.0 °F 60.8 °F 78% 29.93 in 10.0 mi North 4.6 mph - N/A   Mostly Cloudy
10:55 AM 68.0 °F 60.1 °F 76% 29.92 in 10.0 mi NNE 4.6 mph - N/A   Mostly Cloudy
11:55 AM 73.0 °F 59.0 °F 61% 29.91 in 10.0 mi NNE 4.6 mph - N/A   Clear
12:55 PM 75.0 °F 55.9 °F 51% 29.89 in 10.0 mi Variable 3.5 mph - N/A   Scattered Clouds
1:55 PM 77.0 °F 48.9 °F 37% 29.86 in 10.0 mi NNW 9.2 mph - N/A   Partly Cloudy
2:55 PM 77.0 °F 50.0 °F 39% 29.84 in 10.0 mi Variable 4.6 mph - N/A   Partly Cloudy
3:55 PM 77.0 °F 48.9 °F 37% 29.83 in 10.0 mi WSW 9.2 mph 17.3 mph N/A   Partly Cloudy
4:55 PM 75.9 °F 50.0 °F 40% 29.84 in 10.0 mi West 6.9 mph - N/A   Partly Cloudy
5:55 PM 70.0 °F 55.9 °F 61% 29.86 in 10.0 mi Calm Calm - N/A   Partly Cloudy
6:55 PM 64.0 °F 57.0 °F 78% 29.88 in 10.0 mi Calm Calm - N/A   Partly Cloudy
7:55 PM 60.1 °F 57.0 °F 90% 29.91 in 10.0 mi Calm Calm - N/A   Clear
8:55 PM 59.0 °F 55.9 °F 90% 29.92 in 10.0 mi Calm Calm - N/A   Clear
9:55 PM 57.9 °F 55.0 °F 90% 29.94 in 10.0 mi Calm Calm - N/A   Clear
10:55 PM 55.9 °F 54.0 °F 93% 29.95 in 7.0 mi SSW 3.5 mph - N/A   Clear
11:55 PM 55.0 °F 53.1 °F 93% 29.95 in 7.0 mi Calm Calm - N/A   Clear